Location: ????????
(60.4333°N, 46.4710°E)
Time: 18:29:51
(UTC+00:00)

Cosmos 1570 Rocket - Pass Details

Date: 25 November 2020
Orbit: 763 x 787 km, 74.1° (Epoch: 16 January)

Event Time Altitude Azimuth Distance (km) Brightness Sun altitude
Rises 14:13:34 0° 209° (SSW) 3,255 8.0 -14.8°
Reaches altitude 10° 14:15:57 10° 210° (SSW) 2,327 7.2 -15.0°
Maximum altitude 14:21:15 88° 124° (SE) 783 4.0 -15.7°
Enters shadow 14:25:27 17° 33° (NNE) 1,908 5.6 -16.2°
